Flag for Germany Weather past 2 weeks in Stuhr, Lower Saxony, Germany

Now
46 °F

Scattered clouds.


Feels Like: 38 °F
Forecast: 38 / 48 °F
Wind: 26 mph from West

Location: Bremen Airport

Current Time: Mar 30, 2015 at 6:16:36 PM

Latest Report: Mar 30, 2015 at 5:50 PM


Visibility: N/A

Pressure: 29.62 "Hg

Humidity: 62%

Dew point: 34 °F

Location of StuhrLocation

Historic Weather in Stuhr — Graph

°F

Stuhr temperature yesterday

Maximum temperature yesterday: 52 °F (at 1:50 AM)
Minimum temperature yesterday: 41 °F (at 10:50 PM)
Average temperature yesterday: 49 °F

Past Weeks' High & Low Weather Summary

 TemperatureHumidityPressure
High61 °F (Mar 17, 3:50 PM)100% (Mar 19, 12:20 AM)30.42 "Hg (Mar 19, 12:20 AM)
Low28 °F (Mar 23, 5:20 AM)29% (Mar 19, 2:50 PM)29.00 "Hg (Mar 29, 8:20 PM)
Average44 °F79%29.99 "Hg
* Reported Mar 15 4:20 PM — Mar 30 5:20 PM, Stuhr, Weather by CustomWeather, © 2015

Note: Actual official high and low records may vary slightly from our data, if they occured in-between our weather recording intervals... More about our weather records

Advertising

Stuhr weather history for previous 24 hours

 ConditionsComfort  
Time TempWeatherWind HumidityBarometerVisibility
5:20 PM
Mon, Mar 30
45 °FPassing clouds.26 mph66%29.62 "HgN/A
4:50 PM43 °FPassing clouds.23 mph76%29.62 "HgN/A
4:20 PM45 °FScattered clouds.28 mph66%29.59 "HgN/A
3:50 PM46 °FScattered clouds.26 mph66%29.56 "HgN/A
3:20 PM46 °FScattered clouds.29 mph62%29.53 "HgN/A
2:50 PM43 °FScattered clouds.23 mph81%29.53 "HgN/A
2:20 PM48 °FSprinkles. Scattered clouds.31 mph54%29.50 "HgN/A
1:50 PM48 °FScattered clouds.31 mph66%29.50 "HgN/A
1:20 PM48 °FScattered clouds.28 mph66%29.47 "HgN/A
12:50 PM45 °FScattered clouds.28 mph76%29.45 "HgN/A
12:20 PM45 °FScattered clouds.33 mph81%29.45 "HgN/A
11:50 AM45 °FPassing clouds.31 mph81%29.42 "HgN/A
11:20 AM43 °FSprinkles. Broken clouds.35 mph81%29.39 "HgN/A
10:50 AM41 °FBroken clouds.29 mph87%29.36 "HgN/A
10:20 AM41 °FBroken clouds.26 mph87%29.36 "HgN/A
9:50 AM41 °FRain showers. Partly sunny.28 mph87%29.33 "Hg3 mi
9:20 AM39 °FSprinkles. Broken clouds.24 mph93%29.33 "HgN/A
8:50 AM41 °FSprinkles. Partly sunny.26 mph87%29.33 "Hg6 mi
8:20 AM39 °FPassing clouds.21 mph87%29.30 "HgN/A
7:50 AM39 °FPassing clouds.24 mph93%29.30 "HgN/A
7:20 AM41 °FSprinkles. Passing clouds.17 mph87%29.27 "HgN/A
6:50 AM41 °FPassing clouds.21 mph81%29.27 "HgN/A
6:20 AM41 °FPassing clouds.25 mph81%29.24 "HgN/A
5:50 AM41 °FLight rain. Passing clouds.22 mph93%29.24 "HgN/A
5:20 AM43 °FPassing clouds.18 mph87%29.24 "HgN/A
4:50 AM39 °FLight rain. Passing clouds.23 mph100%29.24 "HgN/A
4:20 AM41 °FLight rain. Passing clouds.15 mph93%29.21 "HgN/A
3:50 AM43 °FPassing clouds.21 mph87%29.24 "HgN/A
3:20 AM43 °FPassing clouds.18 mph87%29.24 "HgN/A
2:50 AM43 °FPassing clouds.21 mph81%29.24 "HgN/A
2:20 AM43 °FPassing clouds.29 mph87%29.21 "HgN/A
1:50 AM43 °FPassing clouds.25 mph81%29.21 "HgN/A
1:20 AM43 °FSprinkles. Passing clouds.25 mph87%29.18 "HgN/A
12:50 AM43 °FSprinkles. Passing clouds.23 mph87%29.18 "HgN/A
12:20 AM43 °FPassing clouds.25 mph93%29.18 "HgN/A
11:50 PM
Sun, Mar 29
43 °FSprinkles. Passing clouds.24 mph87%29.15 "HgN/A
11:20 PM41 °FSprinkles. Passing clouds.25 mph93%29.15 "HgN/A
10:50 PM41 °FSprinkles. Passing clouds.36 mph93%29.12 "HgN/A
10:20 PM45 °FRain showers. Passing clouds.39 mph87%29.03 "Hg4 mi
9:50 PM48 °FSprinkles. Partly cloudy.26 mph87%29.00 "Hg4 mi
9:20 PM50 °FLight rain. Passing clouds.26 mph82%29.00 "HgN/A
8:50 PM52 °FLight rain. Partly sunny.26 mph88%29.00 "HgN/A
8:20 PM50 °FLight rain. Mostly cloudy.21 mph94%29.00 "HgN/A
7:50 PM50 °FLight rain. Mostly cloudy.12 mph94%29.03 "Hg5 mi
7:20 PM48 °FRain. Mostly cloudy.16 mph100%29.06 "Hg5 mi
6:50 PM48 °FRain. Mostly cloudy.14 mph100%29.09 "Hg5 mi
6:20 PM48 °FLight rain. Broken clouds.13 mph94%29.12 "HgN/A
Weather by CustomWeather, © 2015

See weather overviewHow to use our weather pages